Regional Weather Roundup
Issued by NWS Sioux Falls, SD

Home | Current Version | Previous Version | Graphics & Text | Print | Product List | Glossary Off
Versions: 1 2 3 4 5 6 7 8 9 10 11 12 13 14 15 16 17 18 19 20 21 22 23 24 25 26 27 28 29 30 31 32 33 34 35 36 37 38 39 40 41 42 43 44 45 46 47 48 49 50

000
ASUS43 KFSD 080302
RWRFSD

WEATHER ROUNDUP FOR SE SOUTH DAKOTA/SW MINNESOTA/NW IOWA
NATIONAL WEATHER SERVICE SIOUX FALLS SD
900 PM CST SUN FEB 07 2016

NOTE: "FAIR" INDICATES FEW OR NO CLOUDS BELOW 12,000 FEET WITH NO
SIGNIFICANT WEATHER AND OR OBSTRUCTIONS TO VISIBILITY.


SDZ038>040-050-052>070-080400-
SOUTHEAST SOUTH DAKOTA

CITY           SKY/WX    TMP DP  RH WIND       PRES   REMARKS
BROOKINGS      FLURRIES  22  16  78 N28G36    29.91F WCI   4
CHAMBERLAIN    NOT AVBL
HURON          PTCLDY    27  20  75 NW22      30.02R WCI  13
MADISON        LGT SNOW  23  23 100 N24G31    29.95R WCI   7
MITCHELL       PTCLDY    29  22  75 NW15      30.05R WCI  18
SIOUX FALLS    LGT SNOW  25  19  78 N28       29.95S WCI   9
WINNER         FAIR      31  17  56 NW23G31   30.15R WCI  18
YANKTON        CLOUDY    30  21  69 NW25G32   30.02S WCI  16
$$

MNZ071-072-080-081-089-090-097-098-080400-
SOUTHWEST MINNESOTA

CITY           SKY/WX    TMP DP  RH WIND       PRES   REMARKS
FAIRMONT       CLOUDY    27  16  63 NW22      29.81R WCI  12
JACKSON          N/A     25  21  86 NW23G29   29.85R WCI  10
LUVERNE        LGT SNOW  27  21  80 NW23G32   29.93R WCI  12
MARSHALL       LGT SNOW  22  17  81 N31G41    29.88R VSB 3/4 WCI   4
MONTEVIDEO     FLURRIES  19  16  86 N24G32    29.92R WCI   2
PIPESTONE      LGT SNOW  23  12  63 N25G38    29.90S WCI   7
REDWOOD FALLS  LGT SNOW  21  16  81 N22G31    29.87R WCI   5
TRACY          SNOW      23  21  92 NW18G30   29.88S VSB 1/2 WCI   9
WINDOM         LGT SNOW  21  19  93 NW25      29.85R VSB 1   WCI   4
WORTHINGTON    CLOUDY   N/A N/A N/A NW28G33   29.88R
$$

IAZ001>003-012>014-020>022-031-032-NEZ013-014-SDZ071-080400-
NORTHWEST IOWA

CITY           SKY/WX    TMP DP  RH WIND       PRES   REMARKS
ESTHERVILLE    SNOW      24  21  88 NW26G37   29.84R VSB 1/4 WCI   8
SIOUX CITY     LGT SNOW  31  26  82 NW21      29.96S WCI  18
SPENCER        LGT SNOW  25  18  74 NW23G40   29.87R WCI  10
STORM LAKE     LGT SNOW  27  23  86 NW28G39   29.88S WCI  11
$$

ABBREVIATIONS USED IN REMARKS
   TC - TEMPERATURE IN CELSIUS
  WCI - WIND CHILL INDEX
   HX - HEAT INDEX
  VSB - VISIBILITY




USA.gov is the U.S. government's official web portal to all federal, state and local government web resources and services.